Location: Balsareny
(41.8670°N, 1.8830°E)
Time: 20:12:51
(UTC+02:00)

Tiangong - Pass Details

Date: 29 June 2021
Orbit: 374 x 386 km, 41.5° (Epoch: 25 July)

Event Time Altitude Azimuth Distance (km) Brightness Sun altitude
Exits shadow 05:15:08 - 273° (W) 1,531 3.7 -10.3°
Reaches altitude 10° 05:15:31 10° 271° (W) 1,383 3.5 -10.2°
Maximum altitude 05:18:28 40° 199° (SSW) 571 1.5 -9.8°
Drops below altitude 10° 05:21:25 10° 128° (SE) 1,386 4.0 -9.4°
Sets 05:23:33 0° 121° (ESE) 2,238 5.2 -9.2°
